KNF04 EDLM-EDDN

Flight info

Callsign KNF04
Flight time 1h 5m
Altitude 15000
Route DCT GMH/N0250F150 IFR Z841 BIGSU L603 TESGA Z719 OSBIT L984 KOMIB T193 ERTES DCT DODAS DODAS1V
Aircraft SF50/L-SDGRWY/L

Departure

Time 2026-05-07 18:36
Airport Marl-Loemühle Airfield (EDLM)

Arrival

Time 2026-05-07 19:41
Airport Nuremberg Airport (EDDN)
Time Latitude Longitude Altitude Speed Heading
2026-05-07 18:12 51.64784 7.15981 231 ft 0 kts 343°
2026-05-07 18:33 51.64779 7.16010 231 ft 2 kts 180°
2026-05-07 18:34 51.64747 7.15999 231 ft 11 kts 205°
2026-05-07 18:34 51.64687 7.15946 232 ft 0 kts 187°
2026-05-07 18:34 51.64646 7.15950 232 ft 6 kts 123°
2026-05-07 18:35 51.64646 7.15956 232 ft 0 kts 70°
2026-05-07 18:35 51.64683 7.16128 231 ft 52 kts 76°
2026-05-07 18:35 51.64860 7.17028 299 ft 105 kts 73°
2026-05-07 18:36 51.65070 7.18240 673 ft 120 kts 73°
2026-05-07 18:36 51.65325 7.19662 1056 ft 149 kts 72°
2026-05-07 18:36 51.65656 7.21511 1239 ft 192 kts 73°
2026-05-07 18:36 51.66012 7.23835 1280 ft 230 kts 85°
2026-05-07 18:37 51.65419 7.26365 1315 ft 260 kts 128°
2026-05-07 18:37 51.63837 7.27875 1589 ft 274 kts 164°
2026-05-07 18:37 51.62108 7.27773 1839 ft 261 kts 190°
2026-05-07 18:37 51.60345 7.27214 2075 ft 250 kts 189°
2026-05-07 18:38 51.58686 7.26679 2313 ft 242 kts 189°
2026-05-07 18:38 51.57065 7.26157 2555 ft 236 kts 189°
2026-05-07 18:38 51.55460 7.25639 2801 ft 233 kts 189°
2026-05-07 18:38 51.53870 7.25127 3051 ft 230 kts 190°
2026-05-07 18:39 51.52314 7.24625 3299 ft 228 kts 190°
2026-05-07 18:39 51.50779 7.24242 3529 ft 225 kts 177°
2026-05-07 18:39 51.49224 7.24615 3791 ft 222 kts 164°
2026-05-07 18:39 51.47732 7.25284 4044 ft 220 kts 161°
2026-05-07 18:40 51.46239 7.26051 4302 ft 220 kts 159°
2026-05-07 18:40 51.44782 7.26827 4556 ft 219 kts 159°
2026-05-07 18:40 51.43306 7.27620 4812 ft 218 kts 159°
2026-05-07 18:40 51.41924 7.28608 5057 ft 216 kts 145°
2026-05-07 18:41 51.40617 7.29854 5313 ft 215 kts 147°
2026-05-07 18:41 51.39346 7.31069 5561 ft 215 kts 147°
2026-05-07 18:41 51.38054 7.32304 5814 ft 215 kts 147°
2026-05-07 18:41 51.36765 7.33541 6070 ft 214 kts 146°
2026-05-07 18:42 51.35761 7.35258 6321 ft 211 kts 124°
2026-05-07 18:42 51.34965 7.37244 6574 ft 211 kts 118°
2026-05-07 18:42 51.34235 7.39285 6823 ft 210 kts 117°
2026-05-07 18:42 51.33524 7.41338 7078 ft 210 kts 117°
2026-05-07 18:43 51.32822 7.43388 7332 ft 210 kts 117°
2026-05-07 18:43 51.32129 7.45413 7584 ft 210 kts 117°
2026-05-07 18:43 51.31428 7.47466 7834 ft 210 kts 117°
2026-05-07 18:43 51.30730 7.49511 8087 ft 209 kts 117°
2026-05-07 18:44 51.30029 7.51559 8337 ft 209 kts 117°
2026-05-07 18:44 51.29333 7.53588 8585 ft 209 kts 117°
2026-05-07 18:44 51.28635 7.55625 8840 ft 208 kts 117°
2026-05-07 18:44 51.27951 7.57623 9089 ft 208 kts 117°
2026-05-07 18:45 51.27225 7.59740 9352 ft 228 kts 117°
2026-05-07 18:45 51.26411 7.62109 9375 ft 254 kts 117°
2026-05-07 18:45 51.25533 7.64658 9539 ft 267 kts 117°
2026-05-07 18:45 51.24641 7.67248 9883 ft 269 kts 118°
2026-05-07 18:46 51.23743 7.69854 10239 ft 270 kts 118°
2026-05-07 18:46 51.22835 7.72486 10583 ft 272 kts 118°
2026-05-07 18:46 51.21925 7.75120 10926 ft 273 kts 118°
2026-05-07 18:46 51.21009 7.77769 11242 ft 274 kts 118°
2026-05-07 18:47 51.20083 7.80446 11535 ft 276 kts 119°
2026-05-07 18:47 51.19159 7.83114 11856 ft 277 kts 119°
2026-05-07 18:47 51.18227 7.85803 12141 ft 278 kts 119°
2026-05-07 18:47 51.17272 7.88506 12395 ft 280 kts 123°
2026-05-07 18:48 51.15826 7.90605 12676 ft 280 kts 141°
2026-05-07 18:48 51.14285 7.92497 12920 ft 282 kts 143°
2026-05-07 18:48 51.12721 7.94388 13166 ft 283 kts 143°
2026-05-07 18:48 51.11139 7.96292 13413 ft 284 kts 143°
2026-05-07 18:49 51.09576 7.98172 13619 ft 285 kts 143°
2026-05-07 18:49 51.07984 8.00082 13847 ft 286 kts 143°
2026-05-07 18:49 51.06392 8.01993 14065 ft 287 kts 143°
2026-05-07 18:49 51.04786 8.03916 14269 ft 288 kts 143°
2026-05-07 18:50 51.03182 8.05836 14470 ft 289 kts 143°
2026-05-07 18:50 51.01577 8.07755 14658 ft 290 kts 144°
2026-05-07 18:50 50.99964 8.09681 14844 ft 291 kts 144°
2026-05-07 18:50 50.98318 8.11646 14945 ft 294 kts 144°
2026-05-07 18:51 50.96671 8.13608 15004 ft 298 kts 144°
2026-05-07 18:51 50.95011 8.15587 15023 ft 302 kts 144°
2026-05-07 18:51 50.93350 8.17563 15029 ft 305 kts 144°
2026-05-07 18:51 50.91742 8.19476 15034 ft 307 kts 144°
2026-05-07 18:52 50.90028 8.21511 15036 ft 309 kts 144°
2026-05-07 18:52 50.88295 8.23569 15040 ft 310 kts 144°
2026-05-07 18:52 50.86570 8.25613 15039 ft 311 kts 144°
2026-05-07 18:52 50.84817 8.27681 15038 ft 312 kts 145°
2026-05-07 18:53 50.82946 8.29352 15035 ft 311 kts 151°
2026-05-07 18:53 50.81045 8.30979 15043 ft 311 kts 152°
2026-05-07 18:53 50.79128 8.32612 15041 ft 312 kts 153°
2026-05-07 18:53 50.77229 8.34229 15034 ft 312 kts 152°
2026-05-07 18:54 50.75434 8.35758 15048 ft 312 kts 152°
2026-05-07 18:54 50.73539 8.37368 15051 ft 313 kts 152°
2026-05-07 18:54 50.71628 8.38992 15044 ft 314 kts 152°
2026-05-07 18:54 50.69717 8.40612 15040 ft 314 kts 152°
2026-05-07 18:55 50.67779 8.42256 15041 ft 314 kts 152°
2026-05-07 18:55 50.65866 8.43876 15039 ft 314 kts 152°
2026-05-07 18:55 50.63940 8.45506 15038 ft 314 kts 152°
2026-05-07 18:55 50.62029 8.47121 15041 ft 314 kts 152°
2026-05-07 18:56 50.60119 8.48734 15041 ft 314 kts 152°
2026-05-07 18:56 50.58194 8.50359 15038 ft 314 kts 152°
2026-05-07 18:56 50.56284 8.51969 15042 ft 314 kts 152°
2026-05-07 18:56 50.54363 8.53588 15036 ft 314 kts 152°
2026-05-07 18:57 50.52436 8.55209 15038 ft 314 kts 152°
2026-05-07 18:57 50.50517 8.56822 15039 ft 314 kts 153°
2026-05-07 18:57 50.48603 8.58429 15041 ft 314 kts 153°
2026-05-07 18:57 50.46683 8.60040 15037 ft 314 kts 153°
2026-05-07 18:58 50.44772 8.61657 15044 ft 314 kts 150°
2026-05-07 18:58 50.43078 8.63830 15036 ft 314 kts 141°
2026-05-07 18:58 50.41416 8.66085 15040 ft 314 kts 140°
2026-05-07 18:58 50.39780 8.68318 15044 ft 315 kts 140°
2026-05-07 18:59 50.38143 8.70552 15045 ft 315 kts 140°
2026-05-07 18:59 50.36486 8.72811 15038 ft 315 kts 140°
2026-05-07 18:59 50.34829 8.75067 15049 ft 315 kts 140°
2026-05-07 18:59 50.33172 8.77321 15049 ft 315 kts 140°
2026-05-07 19:00 50.31490 8.79608 15045 ft 315 kts 140°
2026-05-07 19:00 50.29803 8.81899 15048 ft 315 kts 140°
2026-05-07 19:00 50.28130 8.84169 15050 ft 315 kts 140°
2026-05-07 19:00 50.26883 8.86665 15031 ft 317 kts 112°
2026-05-07 19:01 50.26392 8.89985 15044 ft 315 kts 104°
2026-05-07 19:01 50.25805 8.93293 15039 ft 300 kts 107°
2026-05-07 19:01 50.25183 8.96409 15045 ft 288 kts 108°
2026-05-07 19:01 50.24556 8.99409 15041 ft 280 kts 108°
2026-05-07 19:02 50.23944 9.02263 15051 ft 274 kts 108°
2026-05-07 19:02 50.23339 9.05055 15046 ft 268 kts 108°
2026-05-07 19:02 50.22758 9.07718 15029 ft 250 kts 108°
2026-05-07 19:02 50.22208 9.10232 15033 ft 236 kts 108°
2026-05-07 19:03 50.21694 9.12581 15031 ft 227 kts 108°
2026-05-07 19:03 50.21189 9.14879 15041 ft 224 kts 108°
2026-05-07 19:03 50.20685 9.17175 15043 ft 222 kts 108°
2026-05-07 19:03 50.20182 9.19458 15047 ft 220 kts 108°
2026-05-07 19:04 50.19690 9.21690 15042 ft 219 kts 108°
2026-05-07 19:04 50.19193 9.23944 15041 ft 218 kts 108°
2026-05-07 19:04 50.18702 9.26171 15043 ft 217 kts 108°
2026-05-07 19:04 50.18212 9.28389 15043 ft 217 kts 108°
2026-05-07 19:05 50.17722 9.30592 15045 ft 216 kts 108°
2026-05-07 19:05 50.17229 9.32810 15042 ft 216 kts 108°
2026-05-07 19:05 50.16735 9.35029 15039 ft 215 kts 108°
2026-05-07 19:05 50.16245 9.37228 15040 ft 215 kts 108°
2026-05-07 19:06 50.15751 9.39446 15040 ft 215 kts 108°
2026-05-07 19:06 50.14769 9.43840 15033 ft 215 kts 108°
2026-05-07 19:06 50.14277 9.46034 15035 ft 215 kts 108°
2026-05-07 19:07 50.13771 9.48294 15035 ft 215 kts 108°
2026-05-07 19:07 50.13261 9.50569 15033 ft 215 kts 108°
2026-05-07 19:07 50.12752 9.52832 15029 ft 215 kts 108°
2026-05-07 19:07 50.12247 9.55084 15028 ft 215 kts 108°
2026-05-07 19:08 50.11739 9.57343 15036 ft 214 kts 108°
2026-05-07 19:08 50.11229 9.59607 15033 ft 215 kts 108°
2026-05-07 19:08 50.10725 9.61837 15033 ft 215 kts 108°
2026-05-07 19:08 50.10220 9.64077 15032 ft 210 kts 108°
2026-05-07 19:09 50.09732 9.66236 15025 ft 199 kts 109°
2026-05-07 19:09 50.09264 9.68305 15033 ft 199 kts 109°
2026-05-07 19:09 50.08793 9.70386 15035 ft 199 kts 109°
2026-05-07 19:09 50.08321 9.72467 15038 ft 200 kts 109°
2026-05-07 19:10 50.07851 9.74539 15041 ft 200 kts 109°
2026-05-07 19:10 50.07383 9.76603 15041 ft 201 kts 109°
2026-05-07 19:10 50.07026 9.78568 15027 ft 199 kts 89°
2026-05-07 19:10 50.07034 9.80709 15042 ft 198 kts 87°
2026-05-07 19:11 50.07050 9.82855 15039 ft 199 kts 87°
2026-05-07 19:11 50.07068 9.85032 15042 ft 200 kts 87°
2026-05-07 19:11 50.07088 9.87219 15040 ft 200 kts 87°
2026-05-07 19:11 50.07107 9.89454 15042 ft 200 kts 87°
2026-05-07 19:12 50.07127 9.91654 15042 ft 201 kts 87°
2026-05-07 19:12 50.07147 9.93894 15038 ft 201 kts 87°
2026-05-07 19:12 50.07166 9.96091 15034 ft 201 kts 87°
2026-05-07 19:12 50.07185 9.98328 15037 ft 201 kts 86°
2026-05-07 19:13 50.07203 10.00560 15035 ft 201 kts 86°
2026-05-07 19:13 50.07220 10.02644 15035 ft 201 kts 86°
2026-05-07 19:13 50.07238 10.04851 15036 ft 202 kts 87°
2026-05-07 19:13 50.07256 10.07075 15031 ft 202 kts 86°
2026-05-07 19:14 50.07272 10.09304 15038 ft 202 kts 87°
2026-05-07 19:14 50.07284 10.11540 15036 ft 202 kts 87°
2026-05-07 19:14 50.07294 10.13753 15040 ft 202 kts 87°
2026-05-07 19:14 50.07303 10.15934 15041 ft 202 kts 87°
2026-05-07 19:15 50.07312 10.18116 15040 ft 202 kts 87°
2026-05-07 19:15 50.07320 10.20328 15035 ft 202 kts 87°
2026-05-07 19:15 50.07328 10.22500 15039 ft 202 kts 87°
2026-05-07 19:15 50.07153 10.24741 15038 ft 204 kts 113°
2026-05-07 19:16 50.06599 10.26620 15042 ft 204 kts 114°
2026-05-07 19:16 50.05984 10.28660 15043 ft 205 kts 114°
2026-05-07 19:16 50.05360 10.30720 15035 ft 205 kts 114°
2026-05-07 19:16 50.04734 10.32777 15034 ft 205 kts 114°
2026-05-07 19:17 50.04100 10.34853 15031 ft 205 kts 115°
2026-05-07 19:17 50.03128 10.36483 15047 ft 203 kts 143°
2026-05-07 19:17 50.01934 10.37832 15036 ft 204 kts 146°
2026-05-07 19:17 50.00719 10.39087 15037 ft 205 kts 148°
2026-05-07 19:18 49.99487 10.40297 15034 ft 205 kts 149°
2026-05-07 19:18 49.98234 10.41494 15032 ft 205 kts 150°
2026-05-07 19:18 49.96974 10.42676 15033 ft 205 kts 150°
2026-05-07 19:18 49.95711 10.43852 15030 ft 205 kts 150°
2026-05-07 19:19 49.94455 10.45012 15031 ft 205 kts 150°
2026-05-07 19:19 49.93180 10.46186 15030 ft 206 kts 150°
2026-05-07 19:19 49.91915 10.47348 15031 ft 205 kts 150°
2026-05-07 19:19 49.90648 10.48510 14892 ft 207 kts 150°
2026-05-07 19:20 49.89418 10.49637 14517 ft 207 kts 150°
2026-05-07 19:20 49.88177 10.50773 14139 ft 207 kts 150°
2026-05-07 19:20 49.86939 10.51905 13754 ft 206 kts 151°
2026-05-07 19:20 49.85729 10.53061 13375 ft 207 kts 140°
2026-05-07 19:21 49.84843 10.54842 13008 ft 205 kts 124°
2026-05-07 19:21 49.84071 10.56696 12634 ft 205 kts 121°
2026-05-07 19:21 49.83351 10.58619 12197 ft 207 kts 118°
2026-05-07 19:21 49.82658 10.60601 11707 ft 211 kts 117°
2026-05-07 19:22 49.81971 10.62619 11208 ft 214 kts 117°
2026-05-07 19:22 49.81271 10.64693 10702 ft 215 kts 117°
2026-05-07 19:22 49.80577 10.66749 10201 ft 216 kts 117°
2026-05-07 19:22 49.79889 10.68787 10041 ft 207 kts 117°
2026-05-07 19:23 49.79236 10.70720 10017 ft 193 kts 117°
2026-05-07 19:23 49.78633 10.72504 10013 ft 180 kts 117°
2026-05-07 19:23 49.78110 10.74051 10010 ft 170 kts 117°
2026-05-07 19:23 49.77577 10.75630 10009 ft 159 kts 117°
2026-05-07 19:24 49.77073 10.77119 10013 ft 154 kts 117°
2026-05-07 19:24 49.76551 10.78659 10041 ft 171 kts 117°
2026-05-07 19:24 49.75961 10.80397 10045 ft 192 kts 117°
2026-05-07 19:24 49.75291 10.82376 10036 ft 210 kts 117°
2026-05-07 19:25 49.74577 10.84481 10030 ft 224 kts 118°
2026-05-07 19:25 49.73817 10.86715 10033 ft 233 kts 118°
2026-05-07 19:25 49.73082 10.88875 9686 ft 223 kts 117°
2026-05-07 19:25 49.72372 10.90960 9181 ft 220 kts 117°
2026-05-07 19:26 49.71669 10.93029 8675 ft 218 kts 118°
2026-05-07 19:26 49.70960 10.95107 8164 ft 216 kts 118°
2026-05-07 19:26 49.70269 10.97132 7665 ft 214 kts 117°
2026-05-07 19:26 49.69568 10.99186 7149 ft 212 kts 118°
2026-05-07 19:27 49.68868 11.01233 6630 ft 210 kts 117°
2026-05-07 19:27 49.68184 11.03230 6119 ft 208 kts 117°
2026-05-07 19:27 49.67500 11.05230 5601 ft 207 kts 117°
2026-05-07 19:27 49.66821 11.07209 5099 ft 204 kts 117°
2026-05-07 19:28 49.66127 11.09237 4984 ft 219 kts 117°
2026-05-07 19:28 49.65420 11.11299 4953 ft 212 kts 117°
2026-05-07 19:28 49.64735 11.13293 4944 ft 206 kts 117°
2026-05-07 19:28 49.64082 11.15197 4944 ft 201 kts 117°
2026-05-07 19:29 49.63431 11.17089 4947 ft 197 kts 117°
2026-05-07 19:29 49.62787 11.18959 4947 ft 194 kts 117°
2026-05-07 19:29 49.62151 11.20809 4950 ft 192 kts 117°
2026-05-07 19:29 49.61521 11.22636 4948 ft 191 kts 117°
2026-05-07 19:30 49.60896 11.24451 4949 ft 190 kts 117°
2026-05-07 19:30 49.60267 11.26272 4896 ft 190 kts 116°
2026-05-07 19:30 49.59574 11.28051 4353 ft 196 kts 133°
2026-05-07 19:30 49.58623 11.29507 4012 ft 188 kts 134°
2026-05-07 19:31 49.57732 11.30857 3943 ft 169 kts 134°
2026-05-07 19:31 49.56925 11.32079 3934 ft 152 kts 134°
2026-05-07 19:31 49.56127 11.33281 4051 ft 153 kts 134°
2026-05-07 19:31 49.55342 11.34465 3970 ft 155 kts 134°
2026-05-07 19:32 49.54596 11.35586 3950 ft 152 kts 134°
2026-05-07 19:32 49.53891 11.36644 3948 ft 149 kts 134°
2026-05-07 19:32 49.53190 11.37697 3955 ft 155 kts 134°
2026-05-07 19:32 49.52470 11.38777 3954 ft 159 kts 134°
2026-05-07 19:33 49.51732 11.39889 3949 ft 161 kts 134°
2026-05-07 19:33 49.50875 11.40674 3945 ft 164 kts 169°
2026-05-07 19:33 49.49900 11.40522 4068 ft 145 kts 194°
2026-05-07 19:33 49.49035 11.40243 4031 ft 139 kts 194°
2026-05-07 19:34 49.48152 11.39916 3983 ft 143 kts 201°
2026-05-07 19:34 49.47533 11.39089 3950 ft 140 kts 242°
2026-05-07 19:34 49.47326 11.37983 3936 ft 123 kts 264°
2026-05-07 19:34 49.47263 11.36941 3939 ft 120 kts 271°
2026-05-07 19:35 49.47259 11.35857 3961 ft 131 kts 274°
2026-05-07 19:35 49.47295 11.34717 3963 ft 136 kts 276°
2026-05-07 19:35 49.47361 11.33539 3957 ft 138 kts 278°
2026-05-07 19:35 49.47448 11.32362 3954 ft 138 kts 279°
2026-05-07 19:36 49.47549 11.31156 3838 ft 144 kts 280°
2026-05-07 19:36 49.47664 11.29912 3753 ft 144 kts 281°
2026-05-07 19:36 49.47784 11.28668 3682 ft 144 kts 281°
2026-05-07 19:36 49.47904 11.27443 3594 ft 145 kts 281°
2026-05-07 19:37 49.48023 11.26245 3520 ft 132 kts 282°
2026-05-07 19:37 49.48138 11.25105 3263 ft 136 kts 282°
2026-05-07 19:37 49.48259 11.23918 2984 ft 135 kts 281°
2026-05-07 19:37 49.48371 11.22798 2840 ft 130 kts 281°
2026-05-07 19:38 49.48481 11.21711 2686 ft 128 kts 281°
2026-05-07 19:38 49.48593 11.20591 2531 ft 126 kts 280°
2026-05-07 19:38 49.48701 11.19526 2388 ft 125 kts 280°
2026-05-07 19:38 49.48810 11.18434 2243 ft 124 kts 279°
2026-05-07 19:39 49.48920 11.17340 2100 ft 123 kts 279°
2026-05-07 19:39 49.49023 11.16301 1959 ft 113 kts 279°
2026-05-07 19:39 49.49120 11.15337 1833 ft 109 kts 279°
2026-05-07 19:39 49.49216 11.14371 1713 ft 111 kts 278°
2026-05-07 19:40 49.49315 11.13373 1589 ft 115 kts 278°
2026-05-07 19:40 49.49419 11.12326 1457 ft 118 kts 278°
2026-05-07 19:40 49.49527 11.11243 1319 ft 117 kts 278°
2026-05-07 19:40 49.49628 11.10225 1183 ft 109 kts 279°
2026-05-07 19:41 49.49719 11.09309 1080 ft 89 kts 279°
2026-05-07 19:41 49.49789 11.08608 1036 ft 54 kts 278°
2026-05-07 19:41 49.49834 11.08183 1028 ft 44 kts 279°
2026-05-07 19:41 49.49871 11.07795 1025 ft 34 kts 278°
2026-05-07 19:42 49.49816 11.07660 1021 ft 15 kts 154°
2026-05-07 19:42 49.49765 11.07697 1021 ft 0 kts 147°
2026-05-07 19:42 49.49764 11.07697 1021 ft 0 kts 159°
2026-05-07 19:43 49.49759 11.07700 1021 ft 4 kts 164°
2026-05-07 19:43 49.49736 11.07721 1021 ft 9 kts 153°
2026-05-07 19:44 49.49663 11.07772 1020 ft 19 kts 174°
2026-05-07 19:44 49.49591 11.07706 1019 ft 13 kts 268°
2026-05-07 19:44 49.49602 11.07603 1017 ft 13 kts 278°
2026-05-07 19:44 49.49617 11.07451 1015 ft 19 kts 278°
2026-05-07 19:45 49.49635 11.07261 1015 ft 19 kts 276°
2026-05-07 19:45 49.49576 11.07206 1014 ft 12 kts 187°
2026-05-07 19:45 49.49511 11.07187 1012 ft 2 kts 180°
2026-05-07 19:46 49.49510 11.07187 1012 ft 0 kts 186°
2026-05-07 19:46 49.49508 11.07188 1012 ft 5 kts 147°
2026-05-07 19:46 49.49497 11.07245 1013 ft 7 kts 98°
2026-05-07 19:46 49.49489 11.07325 1015 ft 10 kts 98°
2026-05-07 19:47 49.49489 11.07423 1015 ft 7 kts 22°
2026-05-07 19:47 49.49507 11.07424 1015 ft 0 kts